GW0861 Weather Reports


Display with metric or nautical units.
time (UTC)temp
F
wind
direction
speed
MPH
gust
MPH
rain 1hr
in
rain 24hr
in
rain mn
in
humidity
%
barometer
mb
20260508134024 42 292 2.0 4.0 0.00 0.00 0.00 83 1011.5
20260508133800 41 271 1.0 5.0 0.00 0.00 0.00 82 1011.5
20260508133026 41 303 2.0 5.0 0.00 0.00 0.00 82 1011.4
20260508132524 41 286 3.0 5.0 0.00 0.00 0.00 82 1011.3
20260508132024 41 300 3.0 5.0 0.00 0.00 0.00 82 1011.4
20260508131524 40 320 3.0 5.0 0.00 0.00 0.00 83 1011.4
20260508131025 40 296 1.0 4.0 0.00 0.00 0.00 83 1011.1
20260508130523 40 302 2.0 4.0 0.00 0.00 0.00 83 1011.3
20260508130024 40 340 2.0 5.0 0.00 0.00 0.00 82 1011.4
20260508125524 40 231 2.0 5.0 0.00 0.00 0.00 83 1011.3
20260508125023 40 189 3.0 5.0 0.00 0.00 0.00 85 1011.1
20260508124524 40 179 2.0 4.0 0.00 0.00 0.00 84 1011.1
20260508124024 39 179 2.0 4.0 0.00 0.00 0.00 85 1011.1
20260508123524 39 168 2.0 4.0 0.00 0.00 0.00 85 1011.0
20260508123024 39 180 2.0 4.0 0.00 0.00 0.00 85 1011.0
20260508122759 39 168 3.0 4.0 0.00 0.00 0.00 84 1011.0
20260508122023 38 209 3.0 5.0 0.00 0.00 0.00 84 1011.0
20260508121524 39 180 4.0 5.0 0.00 0.00 0.00 85 1010.9
20260508121023 38 133 4.0 5.0 0.00 0.00 0.00 84 1011.0
20260508120524 38 161 3.0 4.0 0.00 0.00 0.00 84 1011.0
20260508120258 38 168 2.0 3.0 0.00 0.00 0.00 83 1011.1
20260508115524 38 110 0.0 0.0 0.00 0.00 0.00 83 1011.1
20260508115301 38 244 0.0 2.0 0.00 0.00 0.00 82 1011.1
20260508114758 38 354 0.0 2.0 0.00 0.00 0.00 82 1011.2
20260508114024 38 341 0.0 3.0 0.00 0.00 0.00 82 1011.3
20260508113800 38 261 2.0 3.0 0.00 0.00 0.00 83 1011.3
20260508113024 39 154 1.0 3.0 0.00 0.00 0.00 83 1011.2
20260508112523 38 142 2.0 3.0 0.00 0.00 0.00 84 1011.0
20260508112024 38 134 0.0 3.0 0.00 0.00 0.00 84 1011.0
20260508111525 38 135 2.0 4.0 0.00 0.00 0.00 85 1010.9
20260508111023 38 151 3.0 4.0 0.00 0.00 0.00 85 1010.9
20260508110523 38 159 2.0 4.0 0.00 0.00 0.00 85 1010.9
20260508110040 37 185 0.0 2.0 0.00 0.00 0.00 84 1010.8
20260508105023 37 212 1.0 4.0 0.00 0.00 0.00 84 1010.9
20260508104524 37 210 2.0 4.0 0.00 0.00 0.00 83 1010.9
20260508104024 37 204 2.0 4.0 0.00 0.00 0.00 83 1010.9
20260508103800 37 186 2.0 4.0 0.00 0.00 0.00 83 1010.8
20260508103024 37 238 1.0 3.0 0.00 0.00 0.00 83 1010.8
20260508102800 37 238 1.0 3.0 0.00 0.00 0.00 83 1010.9
20260508102306 37 238 2.0 3.0 0.00 0.00 0.00 83 1010.9
20260508101523 37 238 1.0 3.0 0.00 0.00 0.00 84 1010.9
20260508101024 37 276 1.0 2.0 0.00 0.00 0.00 84 1010.9
20260508100524 37 268 0.0 1.0 0.00 0.00 0.00 84 1010.8
20260508100024 37 268 0.0 4.0 0.00 0.00 0.00 84 1010.8
20260508095524 37 268 1.0 4.0 0.00 0.00 0.00 84 1010.9
20260508095023 37 268 3.0 4.0 0.00 0.00 0.00 84 1011.0
20260508094523 37 262 3.0 4.0 0.00 0.00 0.00 84 1011.2
20260508094024 37 250 3.0 5.0 0.00 0.00 0.00 84 1011.1
20260508093524 37 286 3.0 5.0 0.00 0.00 0.00 84 1011.1
20260508093023 37 286 3.0 5.0 0.00 0.00 0.00 84 1011.2
20260508092523 37 286 3.0 5.0 0.00 0.00 0.00 84 1011.1
20260508092300 37 286 3.0 4.0 0.00 0.00 0.00 83 1011.2
20260508091522 37 286 2.0 5.0 0.00 0.00 0.00 83 1011.3
20260508091023 37 310 4.0 5.0 0.00 0.00 0.00 83 1011.4
20260508090523 37 279 3.0 4.0 0.00 0.00 0.00 83 1011.2
20260508090023 37 279 2.0 3.0 0.00 0.00 0.00 83 1011.2
20260508085524 37 279 1.0 4.0 0.00 0.00 0.00 83 1011.2
20260508085023 37 279 2.0 5.0 0.00 0.00 0.00 83 1011.2
20260508084524 37 279 4.0 5.0 0.00 0.00 0.00 83 1011.2
20260508084024 37 296 4.0 5.0 0.00 0.00 0.00 83 1011.2
20260508083523 36 276 3.0 5.0 0.00 0.00 0.00 83 1011.2
20260508083024 36 262 3.0 5.0 0.00 0.00 0.00 82 1011.2
20260508082524 36 275 3.0 6.0 0.00 0.00 0.00 82 1011.1
20260508082023 36 275 5.0 6.0 0.00 0.00 0.00 82 1011.1
20260508081524 37 275 5.0 7.0 0.00 0.00 0.00 82 1011.0
20260508081301 37 275 5.0 7.0 0.00 0.00 0.00 81 1010.9
20260508080523 37 275 5.0 7.0 0.00 0.00 0.00 81 1011.0
20260508080023 37 283 5.0 7.0 0.00 0.00 0.00 81 1011.0
20260508075523 37 286 5.0 7.0 0.00 0.00 0.00 80 1011.1
20260508075023 37 282 6.0 9.0 0.00 0.00 0.00 80 1011.1
20260508074523 37 274 6.0 9.0 0.00 0.00 0.00 80 1011.1
20260508074023 37 281 5.0 7.0 0.00 0.00 0.00 79 1011.0
20260508073524 38 282 6.0 7.0 0.00 0.00 0.00 79 1010.9
20260508073023 38 275 5.0 5.0 0.00 0.00 0.00 78 1011.0
20260508072542 38 281 5.0 9.0 0.00 0.00 0.00 78 1011.0
20260508072536 38 279 4.0 6.0 0.00 0.00 0.00 78 1010.9
20260508071523 38 286 6.0 9.0 0.00 0.00 0.00 77 1011.0
20260508071023 38 276 6.0 7.0 0.00 0.00 0.00 77 1011.0
20260508070523 38 265 4.0 6.0 0.00 0.00 0.00 76 1010.9
20260508070025 38 259 4.0 6.0 0.00 0.00 0.00 76 1011.0
20260508065523 39 293 4.0 7.0 0.00 0.00 0.00 76 1010.8
20260508065306 39 264 4.0 10.0 0.00 0.00 0.00 76 1011.0
20260508064523 39 268 5.0 10.0 0.00 0.00 0.00 76 1011.1
20260508064023 39 254 5.0 6.0 0.00 0.00 0.00 75 1011.0
20260508063523 39 264 4.0 6.0 0.00 0.00 0.00 76 1011.1
20260508063024 39 275 3.0 7.0 0.00 0.00 0.00 76 1011.1
20260508062524 39 306 5.0 10.0 0.00 0.00 0.00 75 1011.2
20260508062023 39 278 7.0 11.0 0.00 0.00 0.00 75 1011.3
20260508061523 39 276 7.0 11.0 0.00 0.00 0.00 75 1011.3
20260508061024 39 274 6.0 10.0 0.00 0.00 0.00 75 1011.2
20260508060524 39 288 7.0 11.0 0.00 0.00 0.00 75 1011.2
20260508060023 39 271 7.0 11.0 0.00 0.00 0.00 75 1011.2
20260508055524 39 272 5.0 9.0 0.00 0.00 0.00 75 1011.1
20260508055025 39 286 6.0 10.0 0.00 0.00 0.00 75 1011.2
20260508054522 39 289 6.0 10.0 0.00 0.00 0.00 74 1011.1
20260508054022 40 293 6.0 9.0 0.00 0.00 0.00 74 1011.1
20260508053523 40 282 6.0 10.0 0.00 0.00 0.00 74 1011.2
20260508053023 40 286 6.0 10.0 0.00 0.00 0.00 74 1011.2
20260508052523 40 281 5.0 9.0 0.00 0.00 0.00 73 1011.2
20260508052023 40 289 6.0 9.0 0.00 0.00 0.00 73 1011.1
20260508051523 40 275 5.0 9.0 0.00 0.00 0.00 73 1011.1
20260508051023 40 285 5.0 9.0 0.00 0.00 0.00 72 1011.1
20260508050801 41 266 6.0 11.0 0.00 0.00 0.00 72 1011.1
20260508050025 41 286 6.0 12.0 0.00 0.00 0.00 72 1011.1
20260508045523 41 272 7.0 12.0 0.00 0.00 0.00 72 1011.1
20260508045023 41 310 7.0 10.0 0.00 0.00 0.00 72 1011.1
20260508044525 41 275 7.0 10.0 0.00 0.00 0.00 72 1011.1
20260508044025 41 288 7.0 10.0 0.00 0.00 0.00 72 1011.1
20260508043525 41 289 7.0 10.0 0.00 0.00 0.00 72 1011.0
20260508043022 41 278 7.0 13.0 0.00 0.00 0.00 71 1011.0
20260508042548 41 299 6.0 11.0 0.00 0.00 0.00 71 1011.0
20260508042540 41 283 8.0 13.0 0.00 0.00 0.00 71 1011.0
20260508041800 41 290 6.0 11.0 0.00 0.00 0.00 71 1011.0
20260508041023 41 303 7.0 10.0 0.00 0.00 0.00 70 1011.0
20260508040523 42 268 6.0 10.0 0.00 0.00 0.00 70 1010.9
20260508040023 42 262 5.0 11.0 0.00 0.00 0.00 70 1010.9
20260508035523 42 293 7.0 11.0 0.00 0.00 0.00 70 1010.9
20260508035519 42 283 7.0 10.0 0.00 0.00 0.00 69 1010.9
20260508032025 44 298 4.0 9.0 0.00 0.00 0.00 70 1010.8
20260508032011 44 276 4.0 6.0 0.00 0.00 0.00 70 1010.9
20260508030523 44 264 2.0 9.0 0.00 0.00 0.00 71 1010.9
20260508030259 44 302 5.0 9.0 0.00 0.00 0.00 71 1011.0
20260508025523 44 295 3.0 10.0 0.00 0.00 0.00 71 1011.0
20260508025023 44 305 3.0 10.0 0.00 0.00 0.00 72 1010.9
20260508024523 44 295 6.0 10.0 0.00 0.00 0.00 72 1010.9
20260508024259 44 255 6.0 10.0 0.00 0.00 0.00 71 1010.7
20260508023757 44 292 6.0 10.0 0.00 0.00 0.00 72 1010.7
20260508023023 44 275 4.0 6.0 0.00 0.00 0.00 70 1010.8
20260508022523 44 302 2.0 10.0 0.00 0.00 0.00 70 1010.8
20260508022023 44 226 5.0 24.0 0.00 0.00 0.00 72 1010.8
20260508021800 44 247 5.0 24.0 0.00 0.00 0.00 71 1010.8
20260508021023 44 247 9.0 17.0 0.00 0.00 0.00 68 1010.9
20260508020802 44 278 6.0 13.0 0.00 0.00 0.00 69 1010.7
20260508020023 44 235 5.0 20.0 0.00 0.00 0.00 69 1010.7
20260508015523 45 257 7.0 20.0 0.00 0.00 0.00 71 1010.7
20260508015022 45 316 13.0 18.0 0.00 0.00 0.00 71 1010.6
20260508014523 45 298 5.0 11.0 0.00 0.00 0.00 72 1010.5
20260508014023 45 197 1.0 3.0 0.00 0.00 0.00 71 1010.4
20260508013522 46 68 1.0 5.0 0.00 0.00 0.00 72 1010.2
20260508013032 46 302 6.0 16.0 0.00 0.00 0.00 69 1010.1
20260508013026 46 296 1.0 11.0 0.00 0.00 0.00 70 1010.1
20260508012023 47 288 11.0 16.0 0.00 0.00 0.00 65 1010.0
20260508011522 47 303 3.0 19.0 0.00 0.00 0.00 66 1010.0
20260508011518 47 266 4.0 19.0 0.00 0.00 0.00 66 1009.7
20260508010524 48 279 6.0 14.0 0.00 0.00 0.00 64 1009.7
20260508010023 48 298 1.0 3.0 0.00 0.00 0.00 64 1009.5
20260508005523 48 298 0.0 3.0 0.00 0.00 0.00 63 1009.5
20260508005022 48 286 0.0 3.0 0.00 0.00 0.00 62 1009.3
20260508004523 48 286 0.0 3.0 0.00 0.00 0.00 61 1009.2
20260508004023 48 286 1.0 3.0 0.00 0.00 0.00 63 1009.1
20260508003800 48 286 1.0 5.0 0.00 0.00 0.00 62 1009.1
20260508003023 48 319 2.0 5.0 0.00 0.00 0.00 62 1009.0
20260508002758 49 307 2.0 5.0 0.00 0.00 0.00 62 1009.1
20260508002024 49 302 2.0 5.0 0.00 0.00 0.00 62 1009.0
20260508001522 49 307 2.0 6.0 0.00 0.00 0.00 61 1009.0
20260508001023 49 286 2.0 6.0 0.00 0.00 0.00 60 1009.0
20260508000522 49 288 2.0 5.0 0.00 0.00 0.00 61 1008.9
20260508000023 49 264 3.0 6.0 0.00 0.00 0.00 61 1008.9
20260507235522 49 329 3.0 7.0 0.00 0.00 0.00 59 1008.9
20260507235023 49 354 3.0 7.0 0.00 0.00 0.00 61 1008.9
20260507234523 50 288 3.0 6.0 0.00 0.00 0.00 61 1008.8
20260507234227 50 331 4.0 10.0 0.00 0.00 0.00 58 1008.8
20260507234023 50 279 2.0 10.0 0.00 0.00 0.00 61 1008.9
20260507233022 50 298 3.0 7.0 0.00 0.00 0.00 59 1008.8
20260507232522 51 282 3.0 7.0 0.00 0.00 0.00 59 1008.8
20260507232026 51 307 3.0 7.0 0.00 0.00 0.00 59 1008.8
20260507230522 51 298 2.0 9.0 0.00 0.00 0.00 57 1008.8
20260507230022 51 320 1.0 9.0 0.00 0.00 0.00 58 1008.8
20260507225522 51 300 2.0 7.0 0.00 0.00 0.00 56 1008.8
20260507225022 51 309 2.0 7.0 0.00 0.00 0.00 57 1008.8
20260507224522 52 309 2.0 6.0 0.00 0.00 0.00 58 1008.9
20260507224304 52 307 2.0 10.0 0.00 0.00 0.00 56 1008.8
20260507224300 52 282 3.0 10.0 0.00 0.00 0.00 57 1008.8
20260507223022 52 296 3.0 5.0 0.00 0.00 0.00 58 1008.8
20260507222523 52 314 2.0 6.0 0.00 0.00 0.00 57 1008.8
20260507222023 52 286 2.0 9.0 0.00 0.00 0.00 55 1008.8
20260507221758 52 276 3.0 9.0 0.00 0.00 0.00 54 1008.8
20260507221514 52 340 3.0 10.0 0.00 0.00 0.00 54 1008.8
20260507220521 52 305 4.0 10.0 0.00 0.00 0.00 51 1008.8
20260507220245 53 310 3.0 9.0 0.00 0.00 0.00 56 1008.7
20260507215532 53 307 4.0 9.0 0.00 0.00 0.00 53 1008.8
20260507215022 53 293 2.0 9.0 0.00 0.00 0.00 56 1008.8
20260507214522 53 251 3.0 10.0 0.00 0.00 0.00 54 1008.8
20260507214508 53 245 2.0 11.0 0.00 0.00 0.00 55 1008.7
20260507213315 53 310 3.0 9.0 0.00 0.00 0.00 52 1008.7
20260507212522 53 314 3.0 9.0 0.00 0.00 0.00 52 1008.8
20260507212022 53 309 5.0 12.0 0.00 0.00 0.00 52 1008.7
20260507211525 54 303 4.0 12.0 0.00 0.00 0.00 51 1008.7
20260507211520 54 324 5.0 14.0 0.00 0.00 0.00 52 1008.7
20260507210749 54 276 7.0 19.0 0.00 0.00 0.00 52 1008.6
20260507210717 54 285 9.0 19.0 0.00 0.00 0.00 52 1008.7
20260507205022 53 299 2.0 7.0 0.00 0.00 0.00 57 1008.7
20260507204522 53 283 4.0 12.0 0.00 0.00 0.00 52 1008.8
20260507204244 53 323 5.0 12.0 0.00 0.00 0.00 53 1008.8
20260507203523 53 331 2.0 10.0 0.00 0.00 0.00 52 1008.8
20260507203022 54 312 5.0 10.0 0.00 0.00 0.00 53 1008.9
20260507202522 54 265 2.0 9.0 0.00 0.00 0.00 54 1008.9
20260507202113 54 286 3.0 14.0 0.00 0.00 0.00 51 1008.7
20260507202022 54 307 3.0 9.0 0.00 0.00 0.00 53 1008.8
20260507201023 54 306 5.0 16.0 0.00 0.00 0.00 53 1008.7
20260507200522 54 295 9.0 16.0 0.00 0.00 0.00 52 1008.7
20260507200022 54 264 8.0 16.0 0.00 0.00 0.00 50 1008.8
20260507195522 54 269 10.0 16.0 0.00 0.00 0.00 49 1008.9
20260507195513 54 307 5.0 10.0 0.00 0.00 0.00 52 1008.9
20260507194916 54 268 5.0 11.0 0.00 0.00 0.00 50 1009.1
20260507194023 54 285 6.0 14.0 0.00 0.00 0.00 52 1009.1
20260507193753 54 286 6.0 14.0 0.00 0.00 0.00 53 1009.1
20260507193022 54 269 4.0 11.0 0.00 0.00 0.00 53 1009.0
20260507192752 54 285 6.0 11.0 0.00 0.00 0.00 52 1009.1
20260507191522 54 354 3.0 16.0 0.00 0.00 0.00 53 1009.3
20260507191022 54 282 10.0 15.0 0.00 0.00 0.00 52 1009.3
20260507190759 53 292 7.0 14.0 0.00 0.00 0.00 54 1009.2
20260507190257 53 281 7.0 14.0 0.00 0.00 0.00 51 1009.4
20260507185758 54 266 6.0 13.0 0.00 0.00 0.00 51 1009.5
20260507185046 54 310 7.0 11.0 0.00 0.00 0.00 52 1009.5
20260507185038 54 254 3.0 11.0 0.00 0.00 0.00 54 1009.5
20260507184023 54 305 3.0 9.0 0.00 0.00 0.00 53 1009.5
20260507183522 54 303 4.0 12.0 0.00 0.00 0.00 54 1009.5
20260507183514 54 298 6.0 18.0 0.00 0.00 0.00 54 1009.4
20260507182748 54 319 5.0 18.0 0.00 0.00 0.00 53 1009.5
20260507182027 53 0 8.0 19.0 0.00 0.00 0.00 54 1009.5
20260507182023 54 293 8.0 18.0 0.00 0.00 0.00 54 1009.5
20260507181022 53 275 11.0 19.0 0.00 0.00 0.00 53 1009.4
20260507180522 52 278 12.0 18.0 0.00 0.00 0.00 52 1009.6
20260507180327 52 285 8.0 16.0 0.00 0.00 0.00 57 1009.6
20260507175522 51 281 5.0 16.0 0.00 0.00 0.00 57 1009.6
20260507175307 51 288 8.0 16.0 0.00 0.00 0.00 54 1009.7
20260507174523 51 321 7.0 13.0 0.00 0.00 0.00 57 1009.8
20260507174022 51 278 2.0 15.0 0.00 0.00 0.00 59 1009.9
20260507173801 51 299 6.0 15.0 0.00 0.00 0.00 55 1010.0
20260507173024 51 278 9.0 18.0 0.00 0.01 0.00 54 1010.1
20260507172750 51 281 9.0 18.0 0.00 0.01 0.00 54 1009.9
20260507172259 51 292 8.0 16.0 0.00 0.01 0.00 56 1010.0
20260507171521 51 286 6.0 17.0 0.00 0.01 0.00 57 1010.0
20260507171022 51 235 9.0 17.0 0.00 0.01 0.00 54 1010.0
20260507170524 51 258 9.0 14.0 0.00 0.01 0.00 60 1010.1
20260507170519 50 302 8.0 14.0 0.00 0.01 0.00 60 1010.2
20260507165023 50 333 8.0 13.0 0.00 0.01 0.00 62 1010.5
20260507165010 50 281 6.0 11.0 0.00 0.01 0.00 61 1010.5
20260507164022 49 314 9.0 11.0 0.00 0.02 0.00 57 1010.5
20260507163522 49 265 6.0 12.0 0.00 0.02 0.00 59 1010.5
20260507163247 49 268 7.0 15.0 0.00 0.02 0.00 60 1010.6
20260507162258 50 265 11.0 17.0 0.00 0.02 0.00 59 1010.7
20260507161801 50 265 5.0 12.0 0.00 0.02 0.00 59 1010.7
20260507161022 50 286 6.0 12.0 0.00 0.02 0.00 58 1010.6
20260507160751 50 271 4.0 13.0 0.00 0.03 0.00 61 1010.8
20260507160022 51 285 7.0 15.0 0.00 0.03 0.00 59 1010.9
20260507155745 51 278 10.0 15.0 0.00 0.03 0.00 59 1010.7
20260507155022 51 306 8.0 14.0 0.00 0.03 0.00 59 1010.7
20260507154522 51 300 6.0 12.0 0.00 0.04 0.00 61 1010.7
20260507154115 51 295 3.0 11.0 0.00 0.04 0.00 60 1010.8
20260507154022 51 295 4.0 10.0 0.00 0.04 0.00 58 1010.8
20260507153255 50 309 6.0 11.0 0.00 0.04 0.00 64 1010.8
20260507152521 49 286 3.0 14.0 0.00 0.04 0.00 65 1010.9
20260507152246 49 289 9.0 14.0 0.00 0.04 0.00 64 1010.9
20260507151800 48 290 4.0 10.0 0.00 0.04 0.00 65 1011.0
20260507151025 48 276 4.0 14.0 0.00 0.05 0.00 61 1011.1
20260507150522 49 310 5.0 16.0 0.00 0.05 0.00 61 1011.1
20260507150024 49 271 11.0 16.0 0.00 0.06 0.00 58 1011.1
20260507145521 49 302 6.0 13.0 0.00 0.06 0.00 61 1011.2
20260507145246 49 295 9.0 13.0 0.00 0.07 0.00 60 1011.2
20260507144022 49 265 9.0 18.0 0.00 0.08 0.00 59 1011.2
20260507143522 49 286 11.0 18.0 0.00 0.10 0.00 61 1011.2
20260507143022 49 282 12.0 17.0 0.00 0.12 0.00 60 1011.1
20260507142523 49 286 12.0 17.0 0.00 0.12 0.00 61 1011.1
20260507142258 49 309 8.0 14.0 0.00 0.13 0.00 65 1011.0
20260507141522 49 283 8.0 13.0 0.00 0.13 0.00 67 1011.2
20260507141022 49 223 5.0 10.0 0.00 0.14 0.00 66 1011.3
20260507140522 50 317 4.0 10.0 0.00 0.14 0.00 66 1011.3
20260507140023 50 269 4.0 10.0 0.00 0.14 0.00 67 1011.2
20260507135522 49 206 5.0 9.0 0.00 0.15 0.00 66 1011.3
20260507135257 49 152 4.0 5.0 0.00 0.16 0.00 70 1011.3
20260507134523 48 279 3.0 7.0 0.00 0.16 0.00 70 1011.4